Location: Auckland
(36.8670°S, 174.7670°E)
Time: 01:28:01
(UTC+13:00)

Cosmos 2360 Rocket - Pass Details

Date: 24 January 2019
Orbit: 833 x 846 km, 71.0° (Epoch: 22 February)

Event Time Altitude Azimuth Distance (km) Brightness Sun altitude
Exits shadow 21:02:01 - 44° (NE) 2,954 4.4 -5.1°
Reaches altitude 10° 21:04:47 10° 67° (ENE) 2,476 4.0 -5.6°
Maximum altitude 21:06:21 11° 84° (E) 2,398 4.0 -5.8°
Drops below altitude 10° 21:07:56 10° 100° (E) 2,485 4.2 -6.1°
Sets 21:12:26 0° 133° (SE) 3,431 5.2 -6.9°
